星链-30101 (STARLINK-30101 )

导读

STARLINK-30101是美国SpaceX星链星座的卫星,于2023年4月19日发射升空,隶属于第二代星链卫星组网序列。星链计划旨在构建全球卫星互联网星座,该卫星加入后提升了星座的覆盖密度与服务容量,可为全球偏远地区、海洋、空中等场景提供低延迟宽带网络接入服务,进一步推动全球互联网络的覆盖布局。

Basic Information
目录编号:
56301
目录名称:
STARLINK-30101
国际标识:
2023-056R
轨道中心:
EARTH
卫星名称:
星链-30101
卫星全名:
星链-30101 (STARLINK-30101 )
卫星状态:
在轨 (已飞行1156 天)
发射日期:
2023-04-19 UTC
国别 :
美国 (US)
星等 :
--
Orbit Information
数据来源 国际轨道数据 AOE轨道数据
星历时间 2026-06-18T05:57:45+0800
17小时前
查看轨道信息
2026-06-12T18:00:00+0800
6天前
查看轨道信息
半长轴 6858.958km 6859.722km
偏心率 0.0002234 0.0002782
轨道倾角 43.003° 43.004°
近地点辐角 292.825° 265.709°
升交点赤经 2.418° 33.502°
平近点角 67.237° 48.821°
近地点 479.288km 479.676km
远地点 482.354km 483.494km
周期 94.221分钟 94.237分钟
每日圈数 15.283247 15.280693
Detailed Information
固有亮度:
5
最大亮度:
0.3
卫星平台:
Starlink v2.0 mini
覆盖范围:
全球
运营商:
太空探索技术公司
运营商所在国:
美国
制造商(研发单位):
太空探索技术公司
制造商所在国:
美国
使用方式:
暂无
Satellite Introduction
星链(Starlink)计划是由太空探索技术公司(SpaceX)提出的一个巨型低轨卫星互联网星座项目,计划在2019年至2024年间在太空搭建由约1.2万颗卫星组成的“星链”网络,其中1584颗将部署在地球上空550千米处的近地轨道,并从2020年开始工作。该卫星仍在工作。
2D Orbit Map
3D Orbit Map
Orbit Altitude Analysis Chart
Orbit Inclination Analysis Chart
Orbit Comprehensive Analysis Chart
View Comprehensive Chart